JAL300 RJTT-RJFF

Flight info

Callsign JAL300
Flight time 1h 32m
Altitude 40000
Route GUSRO Y20 KIRIN
Aircraft A359/H-SDE2E3GHIJ3J4J5LM1ORWXY/LB1D1

Departure

Time 2026-04-30 07:11
Airport Tokyo Haneda International Airport (RJTT)

Arrival

Time 2026-04-30 08:44
Airport Fukuoka Airport (RJFF)
Time Latitude Longitude Altitude Speed Heading
2026-04-30 06:42 35.54782 139.78265 30 ft 0 kts 54°
2026-04-30 07:01 35.54781 139.78265 30 ft 1 kts 54°
2026-04-30 07:01 35.54768 139.78242 28 ft 4 kts 54°
2026-04-30 07:01 35.54754 139.78219 28 ft 4 kts 58°
2026-04-30 07:01 35.54747 139.78192 28 ft 4 kts 108°
2026-04-30 07:02 35.54761 139.78167 28 ft 4 kts 147°
2026-04-30 07:02 35.54773 139.78159 27 ft 0 kts 149°
2026-04-30 07:04 35.54770 139.78161 27 ft 3 kts 149°
2026-04-30 07:05 35.54644 139.78251 30 ft 16 kts 150°
2026-04-30 07:05 35.54540 139.78324 30 ft 19 kts 150°
2026-04-30 07:05 35.54420 139.78410 30 ft 22 kts 150°
2026-04-30 07:06 35.54309 139.78490 31 ft 12 kts 144°
2026-04-30 07:06 35.54303 139.78577 33 ft 10 kts 62°
2026-04-30 07:06 35.54339 139.78653 36 ft 11 kts 60°
2026-04-30 07:06 35.54378 139.78736 38 ft 12 kts 60°
2026-04-30 07:07 35.54421 139.78825 39 ft 12 kts 59°
2026-04-30 07:07 35.54463 139.78916 42 ft 12 kts 60°
2026-04-30 07:07 35.54507 139.79008 44 ft 14 kts 59°
2026-04-30 07:07 35.54563 139.79126 41 ft 20 kts 60°
2026-04-30 07:08 35.54648 139.79304 35 ft 27 kts 59°
2026-04-30 07:08 35.54747 139.79515 33 ft 30 kts 60°
2026-04-30 07:08 35.54798 139.79655 32 ft 9 kts 100°
2026-04-30 07:08 35.54744 139.79709 31 ft 13 kts 150°
2026-04-30 07:09 35.54658 139.79771 31 ft 16 kts 151°
2026-04-30 07:09 35.54554 139.79844 30 ft 19 kts 150°
2026-04-30 07:09 35.54427 139.79935 28 ft 23 kts 150°
2026-04-30 07:09 35.54284 139.80036 28 ft 25 kts 150°
2026-04-30 07:10 35.54192 139.80130 28 ft 11 kts 102°
2026-04-30 07:10 35.54217 139.80213 31 ft 10 kts 61°
2026-04-30 07:10 35.54261 139.80273 33 ft 9 kts 27°
2026-04-30 07:10 35.54324 139.80263 33 ft 11 kts 334°
2026-04-30 07:11 35.54397 139.80210 34 ft 14 kts 329°
2026-04-30 07:11 35.54671 139.80018 35 ft 85 kts 330°
2026-04-30 07:11 35.55395 139.79500 34 ft 154 kts 330°
2026-04-30 07:11 35.56389 139.78777 637 ft 168 kts 330°
2026-04-30 07:12 35.57440 139.78235 1546 ft 162 kts
2026-04-30 07:12 35.58423 139.78728 2452 ft 154 kts 46°
2026-04-30 07:12 35.58943 139.79861 3162 ft 155 kts 81°
2026-04-30 07:12 35.58864 139.81258 3549 ft 178 kts 109°
2026-04-30 07:13 35.58364 139.82783 3882 ft 206 kts 115°
2026-04-30 07:13 35.57754 139.84463 4346 ft 226 kts 115°
2026-04-30 07:13 35.57095 139.86336 4808 ft 250 kts 114°
2026-04-30 07:13 35.56413 139.88346 5591 ft 259 kts 114°
2026-04-30 07:14 35.55716 139.90431 6424 ft 269 kts 116°
2026-04-30 07:14 35.54915 139.92528 7254 ft 273 kts 125°
2026-04-30 07:14 35.53608 139.94167 8262 ft 268 kts 150°
2026-04-30 07:14 35.51859 139.94900 9285 ft 268 kts 176°
2026-04-30 07:15 35.49998 139.94702 10242 ft 274 kts 193°
2026-04-30 07:15 35.48160 139.93823 10697 ft 297 kts 211°
2026-04-30 07:15 35.46572 139.92050 11029 ft 323 kts 233°
2026-04-30 07:15 35.45627 139.89482 11574 ft 340 kts 257°
2026-04-30 07:16 35.45612 139.86584 12475 ft 344 kts 280°
2026-04-30 07:16 35.46484 139.83898 13537 ft 344 kts 296°
2026-04-30 07:16 35.47391 139.81204 14483 ft 342 kts 287°
2026-04-30 07:16 35.48315 139.78490 15209 ft 350 kts 296°
2026-04-30 07:17 35.49828 139.76094 15906 ft 361 kts 313°
2026-04-30 07:17 35.51915 139.74323 16679 ft 370 kts 326°
2026-04-30 07:17 35.55902 139.70356 18097 ft 370 kts 307°
2026-04-30 07:18 35.57326 139.67733 18774 ft 370 kts 296°
2026-04-30 07:18 35.58519 139.64923 19492 ft 371 kts 294°
2026-04-30 07:18 35.59679 139.62100 20255 ft 370 kts 294°
2026-04-30 07:18 35.60843 139.59271 21050 ft 370 kts 294°
2026-04-30 07:19 35.62011 139.56442 21815 ft 370 kts 294°
2026-04-30 07:19 35.63179 139.53615 22571 ft 371 kts 294°
2026-04-30 07:19 35.64349 139.50783 23349 ft 372 kts 293°
2026-04-30 07:19 35.65334 139.47850 24051 ft 370 kts 284°
2026-04-30 07:20 35.65767 139.44730 24583 ft 372 kts 273°
2026-04-30 07:20 35.65857 139.41533 25084 ft 377 kts 270°
2026-04-30 07:20 35.65895 139.38292 25677 ft 381 kts 270°
2026-04-30 07:20 35.65935 139.35016 26228 ft 385 kts 269°
2026-04-30 07:21 35.65980 139.31712 26777 ft 388 kts 269°
2026-04-30 07:21 35.66028 139.28376 27321 ft 392 kts 269°
2026-04-30 07:21 35.66077 139.25057 27933 ft 394 kts 269°
2026-04-30 07:21 35.66127 139.21681 28452 ft 398 kts 268°
2026-04-30 07:22 35.66228 139.14794 29408 ft 406 kts 268°
2026-04-30 07:22 35.66257 139.11313 29936 ft 409 kts 266°
2026-04-30 07:22 35.66157 139.07809 30424 ft 411 kts 264°
2026-04-30 07:23 35.65976 139.04284 30885 ft 413 kts 263°
2026-04-30 07:23 35.65769 139.00760 31347 ft 415 kts 263°
2026-04-30 07:23 35.65566 138.97216 31852 ft 415 kts 263°
2026-04-30 07:23 35.65376 138.93670 32279 ft 417 kts 263°
2026-04-30 07:24 35.65190 138.90108 32655 ft 418 kts 263°
2026-04-30 07:24 35.65020 138.86540 33038 ft 419 kts 263°
2026-04-30 07:24 35.64858 138.82950 33351 ft 421 kts 263°
2026-04-30 07:24 35.64697 138.79357 33828 ft 420 kts 263°
2026-04-30 07:25 35.64538 138.75803 34577 ft 412 kts 263°
2026-04-30 07:25 35.64380 138.72317 35207 ft 405 kts 263°
2026-04-30 07:25 35.64221 138.68870 35691 ft 403 kts 263°
2026-04-30 07:25 35.64059 138.65436 36086 ft 402 kts 263°
2026-04-30 07:26 35.63888 138.62014 36498 ft 399 kts 262°
2026-04-30 07:26 35.63710 138.58615 36934 ft 397 kts 262°
2026-04-30 07:26 35.63529 138.55236 37326 ft 396 kts 262°
2026-04-30 07:26 35.63348 138.51866 37708 ft 394 kts 262°
2026-04-30 07:27 35.63170 138.48557 38091 ft 392 kts 262°
2026-04-30 07:27 35.62992 138.45222 38461 ft 390 kts 262°
2026-04-30 07:27 35.62813 138.41893 38806 ft 389 kts 261°
2026-04-30 07:27 35.62635 138.38583 39091 ft 387 kts 262°
2026-04-30 07:28 35.62458 138.35287 39438 ft 385 kts 262°
2026-04-30 07:28 35.62281 138.32008 39641 ft 385 kts 262°
2026-04-30 07:28 35.62103 138.28726 39843 ft 385 kts 262°
2026-04-30 07:28 35.61923 138.25437 40057 ft 386 kts 262°
2026-04-30 07:29 35.61743 138.22144 40159 ft 386 kts 262°
2026-04-30 07:29 35.61563 138.18861 40189 ft 384 kts 262°
2026-04-30 07:29 35.61198 138.12311 40181 ft 384 kts 262°
2026-04-30 07:30 35.60649 138.02482 40166 ft 384 kts 262°
2026-04-30 07:31 35.60277 137.95911 40155 ft 385 kts 262°
2026-04-30 07:31 35.59895 137.89341 40148 ft 385 kts 262°
2026-04-30 07:32 35.59511 137.82822 40147 ft 384 kts 262°
2026-04-30 07:32 35.59118 137.76280 40165 ft 384 kts 261°
2026-04-30 07:33 35.58619 137.69763 40140 ft 384 kts 260°
2026-04-30 07:33 35.58119 137.63247 40143 ft 384 kts 261°
2026-04-30 07:34 35.57632 137.56727 40129 ft 383 kts 261°
2026-04-30 07:34 35.56751 137.50321 40134 ft 379 kts 254°
2026-04-30 07:35 35.55441 137.44039 40130 ft 379 kts 252°
2026-04-30 07:35 35.54061 137.37797 40120 ft 379 kts 252°
2026-04-30 07:36 35.52672 137.31545 40125 ft 379 kts 252°
2026-04-30 07:36 35.51292 137.25301 40120 ft 379 kts 252°
2026-04-30 07:37 35.49916 137.19090 40121 ft 379 kts 252°
2026-04-30 07:37 35.48526 137.12850 40117 ft 379 kts 252°
2026-04-30 07:38 35.47145 137.06599 40120 ft 379 kts 252°
2026-04-30 07:38 35.45760 137.00354 40123 ft 379 kts 252°
2026-04-30 07:39 35.44598 136.95140 40112 ft 379 kts 252°
2026-04-30 07:39 35.43204 136.88912 40114 ft 379 kts 252°
2026-04-30 07:40 35.41805 136.82683 40111 ft 379 kts 252°
2026-04-30 07:40 35.40413 136.76500 40108 ft 379 kts 252°
2026-04-30 07:41 35.39009 136.70275 40109 ft 379 kts 252°
2026-04-30 07:41 35.37601 136.64042 40107 ft 379 kts 252°
2026-04-30 07:42 35.36188 136.57812 40107 ft 379 kts 252°
2026-04-30 07:42 35.34773 136.51586 40101 ft 380 kts 252°
2026-04-30 07:43 35.33353 136.45354 40089 ft 380 kts 252°
2026-04-30 07:43 35.31926 136.39114 40094 ft 380 kts 252°
2026-04-30 07:44 35.30496 136.32867 40101 ft 381 kts 251°
2026-04-30 07:44 35.29062 136.26623 40074 ft 381 kts 251°
2026-04-30 07:45 35.27635 136.20419 40102 ft 381 kts 251°
2026-04-30 07:45 35.26199 136.14188 40066 ft 381 kts 251°
2026-04-30 07:46 35.24755 136.07949 40061 ft 381 kts 251°
2026-04-30 07:46 35.23307 136.01706 40062 ft 381 kts 251°
2026-04-30 07:47 35.21856 135.95467 40058 ft 381 kts 251°
2026-04-30 07:47 35.20402 135.89227 40054 ft 382 kts 252°
2026-04-30 07:48 35.18938 135.82973 40046 ft 382 kts 251°
2026-04-30 07:48 35.17527 135.76699 40044 ft 384 kts 253°
2026-04-30 07:49 35.16470 135.70288 40036 ft 384 kts 256°
2026-04-30 07:49 35.15486 135.63874 40039 ft 384 kts 255°
2026-04-30 07:50 35.14450 135.57483 40031 ft 383 kts 255°
2026-04-30 07:50 35.13374 135.51106 40027 ft 383 kts 254°
2026-04-30 07:51 35.12288 135.44742 40028 ft 382 kts 254°
2026-04-30 07:51 35.11211 135.38439 40021 ft 381 kts 254°
2026-04-30 07:52 35.10130 135.32118 40023 ft 381 kts 254°
2026-04-30 07:52 35.09044 135.25792 40019 ft 381 kts 254°
2026-04-30 07:53 35.07954 135.19465 40017 ft 380 kts 254°
2026-04-30 07:53 35.06862 135.13162 40017 ft 380 kts 254°
2026-04-30 07:54 35.05766 135.06849 40022 ft 380 kts 254°
2026-04-30 07:54 35.04673 135.00546 40015 ft 379 kts 254°
2026-04-30 07:55 35.03576 134.94244 40014 ft 380 kts 253°
2026-04-30 07:55 35.02472 134.87920 40014 ft 382 kts 253°
2026-04-30 07:56 35.01353 134.81591 40012 ft 382 kts 253°
2026-04-30 07:56 35.00234 134.75271 40000 ft 381 kts 253°
2026-04-30 07:57 34.99116 134.68942 40016 ft 382 kts 253°
2026-04-30 07:57 34.97940 134.62678 40012 ft 381 kts 252°
2026-04-30 07:58 34.96676 134.56401 40014 ft 381 kts 252°
2026-04-30 07:58 34.95410 134.50109 40015 ft 382 kts 252°
2026-04-30 07:59 34.94155 134.43815 40010 ft 382 kts 252°
2026-04-30 07:59 34.92904 134.37510 40015 ft 383 kts 252°
2026-04-30 08:00 34.91015 134.28037 40012 ft 383 kts 252°
2026-04-30 08:00 34.89755 134.21726 40005 ft 383 kts 252°
2026-04-30 08:01 34.88485 134.15403 40011 ft 385 kts 252°
2026-04-30 08:01 34.87217 134.09111 40010 ft 385 kts 252°
2026-04-30 08:02 34.85300 133.99615 40022 ft 384 kts 252°
2026-04-30 08:03 34.82734 133.86999 40021 ft 385 kts 252°
2026-04-30 08:04 34.81430 133.80664 40034 ft 386 kts 252°
2026-04-30 08:04 34.80099 133.74360 40017 ft 384 kts 251°
2026-04-30 08:05 34.78761 133.68063 40015 ft 384 kts 251°
2026-04-30 08:05 34.77436 133.61813 40021 ft 384 kts 251°
2026-04-30 08:06 34.76099 133.55527 40009 ft 384 kts 251°
2026-04-30 08:06 34.74765 133.49249 40006 ft 384 kts 251°
2026-04-30 08:07 34.73422 133.42967 40021 ft 384 kts 251°
2026-04-30 08:07 34.72079 133.36700 39975 ft 382 kts 251°
2026-04-30 08:08 34.70738 133.30440 39986 ft 382 kts 251°
2026-04-30 08:08 34.69394 133.24192 39981 ft 382 kts 251°
2026-04-30 08:09 34.68046 133.17944 39978 ft 382 kts 251°
2026-04-30 08:09 34.66697 133.11711 39978 ft 381 kts 251°
2026-04-30 08:10 34.65345 133.05481 39970 ft 382 kts 251°
2026-04-30 08:10 34.63997 132.99279 39980 ft 382 kts 251°
2026-04-30 08:11 34.62639 132.93050 39974 ft 381 kts 251°
2026-04-30 08:11 34.61279 132.86833 39984 ft 381 kts 251°
2026-04-30 08:12 34.59916 132.80622 39976 ft 381 kts 251°
2026-04-30 08:12 34.58551 132.74404 39869 ft 381 kts 251°
2026-04-30 08:12 34.57873 132.71310 39638 ft 380 kts 251°
2026-04-30 08:13 34.57191 132.68217 39399 ft 380 kts 251°
2026-04-30 08:13 34.56507 132.65123 39158 ft 379 kts 250°
2026-04-30 08:13 34.55824 132.62032 38933 ft 378 kts 250°
2026-04-30 08:13 34.55142 132.58955 38748 ft 377 kts 250°
2026-04-30 08:14 34.54461 132.55891 38485 ft 376 kts 250°
2026-04-30 08:14 34.53779 132.52834 38205 ft 376 kts 250°
2026-04-30 08:14 34.53095 132.49765 37918 ft 377 kts 251°
2026-04-30 08:14 34.52408 132.46684 37644 ft 380 kts 251°
2026-04-30 08:15 34.51716 132.43578 37357 ft 382 kts 250°
2026-04-30 08:15 34.51017 132.40462 37132 ft 384 kts 251°
2026-04-30 08:15 34.50317 132.37337 36873 ft 385 kts 251°
2026-04-30 08:15 34.49615 132.34203 36607 ft 386 kts 251°
2026-04-30 08:16 34.48911 132.31059 36352 ft 387 kts 251°
2026-04-30 08:16 34.48206 132.27906 36091 ft 389 kts 251°
2026-04-30 08:16 34.47502 132.24730 35850 ft 391 kts 251°
2026-04-30 08:16 34.46800 132.21551 35585 ft 391 kts 251°
2026-04-30 08:17 34.46079 132.18370 35370 ft 392 kts 251°
2026-04-30 08:17 34.45362 132.15219 35141 ft 394 kts 251°
2026-04-30 08:17 34.44632 132.12013 34902 ft 396 kts 251°
2026-04-30 08:17 34.43889 132.08750 34652 ft 397 kts 251°
2026-04-30 08:18 34.43163 132.05560 34433 ft 399 kts 251°
2026-04-30 08:18 34.42426 132.02317 34203 ft 400 kts 251°
2026-04-30 08:18 34.41688 131.99061 33977 ft 401 kts 251°
2026-04-30 08:18 34.40945 131.95797 33731 ft 403 kts 251°
2026-04-30 08:19 34.40195 131.92514 33455 ft 405 kts 251°
2026-04-30 08:19 34.39441 131.89216 33165 ft 408 kts 251°
2026-04-30 08:19 34.38683 131.85902 32891 ft 409 kts 251°
2026-04-30 08:19 34.37938 131.82641 32645 ft 410 kts 251°
2026-04-30 08:20 34.37174 131.79300 32383 ft 413 kts 251°
2026-04-30 08:20 34.36403 131.75934 32155 ft 416 kts 251°
2026-04-30 08:20 34.35627 131.72557 31916 ft 418 kts 251°
2026-04-30 08:20 34.34845 131.69161 31673 ft 419 kts 251°
2026-04-30 08:21 34.34059 131.65750 31420 ft 421 kts 250°
2026-04-30 08:21 34.33270 131.62329 31168 ft 424 kts 250°
2026-04-30 08:21 34.32477 131.58885 30899 ft 426 kts 250°
2026-04-30 08:21 34.31673 131.55418 30690 ft 429 kts 250°
2026-04-30 08:22 34.30864 131.51941 30441 ft 431 kts 250°
2026-04-30 08:22 34.30050 131.48441 30204 ft 433 kts 250°
2026-04-30 08:22 34.29231 131.44926 29967 ft 435 kts 250°
2026-04-30 08:22 34.28409 131.41396 29688 ft 437 kts 250°
2026-04-30 08:23 34.27584 131.37865 29424 ft 436 kts 250°
2026-04-30 08:23 34.26759 131.34343 29181 ft 435 kts 250°
2026-04-30 08:23 34.25940 131.30836 28917 ft 432 kts 250°
2026-04-30 08:23 34.25136 131.27389 28631 ft 431 kts 250°
2026-04-30 08:24 34.24325 131.23921 28128 ft 425 kts 250°
2026-04-30 08:24 34.23526 131.20502 27418 ft 420 kts 250°
2026-04-30 08:24 34.22733 131.17115 26644 ft 417 kts 250°
2026-04-30 08:24 34.21941 131.13755 25875 ft 415 kts 250°
2026-04-30 08:25 34.21149 131.10404 25119 ft 413 kts 250°
2026-04-30 08:25 34.20364 131.07079 24366 ft 410 kts 250°
2026-04-30 08:25 34.19581 131.03780 23614 ft 407 kts 250°
2026-04-30 08:25 34.18623 131.00579 22794 ft 402 kts 245°
2026-04-30 08:26 34.17923 130.98521 22293 ft 399 kts 245°
2026-04-30 08:26 34.16855 130.95453 21562 ft 394 kts 244°
2026-04-30 08:26 34.15791 130.92429 20826 ft 390 kts 245°
2026-04-30 08:26 34.14365 130.88421 19847 ft 387 kts 244°
2026-04-30 08:27 34.13080 130.85632 19112 ft 385 kts 234°
2026-04-30 08:27 34.11246 130.83290 18378 ft 386 kts 220°
2026-04-30 08:27 34.08925 130.81647 17543 ft 391 kts 205°
2026-04-30 08:27 34.07169 130.80986 17000 ft 392 kts 197°
2026-04-30 08:28 34.04495 130.80317 16208 ft 392 kts 194°
2026-04-30 08:28 34.01855 130.79721 15432 ft 390 kts 193°
2026-04-30 08:28 33.99160 130.79109 14634 ft 388 kts 193°
2026-04-30 08:28 33.96551 130.78510 13871 ft 385 kts 193°
2026-04-30 08:29 33.93931 130.77903 13019 ft 382 kts 192°
2026-04-30 08:29 33.91342 130.77300 12301 ft 376 kts 192°
2026-04-30 08:29 33.88790 130.76709 11573 ft 371 kts 192°
2026-04-30 08:29 33.86272 130.76124 10846 ft 366 kts 192°
2026-04-30 08:30 33.83819 130.75548 10655 ft 350 kts 192°
2026-04-30 08:30 33.81483 130.75001 10548 ft 334 kts 192°
2026-04-30 08:30 33.79260 130.74482 10438 ft 318 kts 192°
2026-04-30 08:30 33.77138 130.73985 10338 ft 303 kts 192°
2026-04-30 08:31 33.75114 130.73512 10228 ft 289 kts 192°
2026-04-30 08:31 33.73182 130.73061 10105 ft 276 kts 192°
2026-04-30 08:31 33.71336 130.72630 9995 ft 265 kts 192°
2026-04-30 08:31 33.69536 130.72212 9794 ft 267 kts 192°
2026-04-30 08:32 33.67690 130.71779 9534 ft 272 kts 192°
2026-04-30 08:32 33.65835 130.71344 9289 ft 272 kts 192°
2026-04-30 08:32 33.63983 130.70913 9056 ft 272 kts 192°
2026-04-30 08:32 33.62127 130.70479 8822 ft 271 kts 192°
2026-04-30 08:33 33.60297 130.70053 8596 ft 272 kts 192°
2026-04-30 08:33 33.58437 130.69620 8371 ft 272 kts 192°
2026-04-30 08:33 33.56583 130.69188 8129 ft 272 kts 192°
2026-04-30 08:33 33.54727 130.68757 7909 ft 272 kts 192°
2026-04-30 08:34 33.52867 130.68326 7675 ft 272 kts 192°
2026-04-30 08:34 33.51007 130.67895 7440 ft 272 kts 192°
2026-04-30 08:34 33.49155 130.67474 7270 ft 267 kts 191°
2026-04-30 08:34 33.47339 130.67411 7119 ft 257 kts 174°
2026-04-30 08:35 33.45624 130.67794 7001 ft 246 kts 169°
2026-04-30 08:35 33.43990 130.68241 6840 ft 237 kts 168°
2026-04-30 08:35 33.42398 130.68679 6596 ft 233 kts 168°
2026-04-30 08:35 33.40825 130.69105 6407 ft 231 kts 168°
2026-04-30 08:36 33.39248 130.69545 6212 ft 233 kts 168°
2026-04-30 08:36 33.37653 130.69667 6058 ft 230 kts 189°
2026-04-30 08:36 33.36205 130.68937 5828 ft 225 kts 220°
2026-04-30 08:36 33.35237 130.67470 5463 ft 227 kts 239°
2026-04-30 08:37 33.34486 130.65830 5203 ft 223 kts 240°
2026-04-30 08:37 33.33986 130.64088 5029 ft 223 kts 262°
2026-04-30 08:37 33.34229 130.62298 4997 ft 216 kts 294°
2026-04-30 08:37 33.35178 130.60999 5000 ft 205 kts 322°
2026-04-30 08:38 33.36397 130.60137 4866 ft 203 kts 330°
2026-04-30 08:38 33.37639 130.59334 4606 ft 202 kts 328°
2026-04-30 08:38 33.38851 130.58499 4321 ft 201 kts 328°
2026-04-30 08:38 33.40070 130.57668 3977 ft 202 kts 329°
2026-04-30 08:39 33.41290 130.56842 3680 ft 202 kts 330°
2026-04-30 08:39 33.42513 130.56011 3399 ft 202 kts 330°
2026-04-30 08:39 33.43729 130.55185 3135 ft 199 kts 330°
2026-04-30 08:39 33.44893 130.54393 2886 ft 189 kts 331°
2026-04-30 08:40 33.45998 130.53642 2656 ft 178 kts 332°
2026-04-30 08:40 33.47041 130.52932 2418 ft 167 kts 332°
2026-04-30 08:40 33.48017 130.52269 2183 ft 154 kts 332°
2026-04-30 08:40 33.48918 130.51655 1989 ft 143 kts 333°
2026-04-30 08:41 33.49764 130.51080 1814 ft 138 kts 333°
2026-04-30 08:41 33.50597 130.50514 1640 ft 137 kts 334°
2026-04-30 08:41 33.51418 130.49955 1443 ft 134 kts 334°
2026-04-30 08:41 33.52225 130.49408 1271 ft 132 kts 331°
2026-04-30 08:42 33.53022 130.48863 1091 ft 131 kts 332°
2026-04-30 08:42 33.53817 130.48323 915 ft 132 kts 333°
2026-04-30 08:42 33.54615 130.47779 740 ft 132 kts 334°
2026-04-30 08:42 33.55404 130.47239 537 ft 131 kts 334°
2026-04-30 08:43 33.56187 130.46705 384 ft 129 kts 333°
2026-04-30 08:43 33.56968 130.46161 210 ft 129 kts 333°
2026-04-30 08:43 33.57755 130.45629 56 ft 129 kts 334°
2026-04-30 08:43 33.58482 130.45145 42 ft 103 kts 331°
2026-04-30 08:44 33.59004 130.44794 32 ft 69 kts 330°
2026-04-30 08:44 33.59304 130.44591 31 ft 34 kts 330°
2026-04-30 08:44 33.59457 130.44497 31 ft 20 kts 351°
2026-04-30 08:44 33.59588 130.44489 32 ft 14 kts 359°
2026-04-30 08:45 33.59658 130.44508 33 ft 8 kts 43°
2026-04-30 08:45 33.59688 130.44565 32 ft 8 kts 61°
2026-04-30 08:45 33.59727 130.44613 32 ft 3 kts 17°
2026-04-30 08:45 33.59754 130.44604 32 ft 8 kts 335°
2026-04-30 08:46 33.59796 130.44582 32 ft 2 kts 358°
2026-04-30 08:46 33.59806 130.44587 32 ft 3 kts 17°
2026-04-30 08:46 33.59828 130.44615 32 ft 7 kts 60°
2026-04-30 08:46 33.59838 130.44637 32 ft 0 kts 61°
2026-04-30 08:47 33.59840 130.44642 32 ft 0 kts 61°
2026-04-30 08:48 33.59842 130.44646 32 ft 0 kts 61°